Weather History for Pensacola NAS, FL

Change the Weather History Date:

Wednesday, January 2, 2013

  Actual Average Record
Temperature  
Mean Temperature 52 °F -  
Max Temperature 57 °F 59 °F - (-1)
Min Temperature 46 °F 40 °F - (-1)
Degree Days  
Heating Degree Days 12    
Growing Degree Days 2 (Base 50)    
Moisture  
Dew Point 49 °F    
Average Humidity 85    
Maximum Humidity 97    
Minimum Humidity 72    
Precipitation  
Precipitation 0.00 in - - ()
Sea Level Pressure  
Sea Level Pressure 30.08 in    
Wind  
Wind Speed 9 mph (North)    
Max Wind Speed 14 mph    
Max Gust Speed 21 mph    
Visibility 10 miles    
Events Rain    
Averages and records for this station are not official NWS values.
T = Trace of Precipitation, MM = Missing Value Source: NWS Daily Summary

Daily Weather History Graph

Daily Weather History Graph

Search for Another Location

Airport:

Trip Planner

Search our weather history database for the weather conditions in past years. The results will help you decide how hot, cold, wet, or windy it might be!

Date:

Astronomy

Jan. 02, 2013 Rise Set
Actual Time 6:46 AM CST 5:00 PM CST
Civil Twilight 6:19 AM CST 5:27 PM CST
Nautical Twilight 5:50 AM CST 5:57 PM CST
Astronomical Twilight 5:20 AM CST 6:26 PM CST
Moon 10:07 PM CST (1/2) 9:50 AM CST (1/2)
Length of Visible Light 11h 07m
Length of Day
10h 14m
Waning Gibbous, 75% of the Moon is Illuminated
Jan 2
Waning Gibbous
Jan 4
Last Quarter
Jan 11
New
Jan 18
First Quarter
Jan 26
Full

Hourly Weather History & Observations

Time (CST) Temp. Dew Point Humidity Pressure Visibility Wind Dir Wind Speed Gust Speed Precip Events Conditions
12:56 AM 57.9 °F 57.0 °F 97% 29.99 in 10.0 mi North 6.9 mph - N/A   Overcast
1:56 AM 55.9 °F 55.0 °F 97% 30.00 in 10.0 mi North 9.2 mph - N/A   Overcast
2:56 AM 55.9 °F 54.0 °F 93% 30.01 in 10.0 mi North 11.5 mph 18.4 mph N/A   Overcast
3:03 AM 55.4 °F 53.6 °F 94% 30.01 in 10.0 mi North 10.4 mph - N/A   Overcast
3:56 AM 55.0 °F 53.1 °F 93% 30.01 in 10.0 mi North 6.9 mph 18.4 mph 0.00 in   Overcast
4:17 AM 55.4 °F 53.6 °F 94% 30.01 in 10.0 mi North 10.4 mph - N/A   Overcast
4:56 AM 54.0 °F 53.1 °F 97% 30.02 in 7.0 mi North 10.4 mph - 0.00 in Rain Light Rain
5:56 AM 53.1 °F 51.1 °F 93% 30.04 in 10.0 mi North 11.5 mph 20.7 mph 0.00 in   Overcast
6:56 AM 53.1 °F 50.0 °F 89% 30.06 in 10.0 mi North 8.1 mph 17.3 mph N/A   Overcast
7:56 AM 53.1 °F 50.0 °F 89% 30.08 in 10.0 mi North 11.5 mph - N/A   Overcast
8:56 AM 54.0 °F 50.0 °F 86% 30.12 in 10.0 mi North 9.2 mph 17.3 mph N/A   Mostly Cloudy
9:06 AM 55.4 °F 50.0 °F 82% 30.10 in 10.0 mi North 13.8 mph - N/A   Mostly Cloudy
9:37 AM 55.4 °F 48.2 °F 77% 30.11 in 10.0 mi North 10.4 mph - N/A   Mostly Cloudy
9:56 AM 55.0 °F 48.0 °F 77% 30.12 in 10.0 mi North 9.2 mph - N/A   Mostly Cloudy
10:56 AM 55.9 °F 48.0 °F 75% 30.11 in 10.0 mi North 8.1 mph - N/A   Overcast
11:56 AM 55.9 °F 48.0 °F 75% 30.09 in 10.0 mi North 10.4 mph - N/A   Overcast
12:56 PM 57.0 °F 48.0 °F 72% 30.06 in 10.0 mi North 10.4 mph - N/A   Overcast
1:56 PM 53.1 °F 46.9 °F 80% 30.06 in 10.0 mi North 5.8 mph - N/A   Overcast
2:56 PM 53.1 °F 46.0 °F 77% 30.06 in 10.0 mi North 8.1 mph 16.1 mph N/A   Overcast
3:56 PM 53.1 °F 46.0 °F 77% 30.08 in 10.0 mi North 9.2 mph - N/A   Overcast
4:56 PM 51.1 °F 46.0 °F 83% 30.12 in 10.0 mi NNW 8.1 mph - N/A   Overcast
5:56 PM 50.0 °F 45.0 °F 83% 30.14 in 10.0 mi NNW 10.4 mph 20.7 mph N/A   Overcast
6:56 PM 50.0 °F 44.1 °F 80% 30.13 in 10.0 mi North 10.4 mph 17.3 mph N/A   Mostly Cloudy
7:56 PM 48.9 °F 44.1 °F 83% 30.14 in 10.0 mi North 9.2 mph - N/A   Overcast
8:56 PM 48.9 °F 44.1 °F 83% 30.15 in 10.0 mi North 8.1 mph 17.3 mph N/A   Overcast
9:56 PM 48.0 °F 44.1 °F 86% 30.17 in 10.0 mi NNW 10.4 mph - N/A   Overcast
10:56 PM 48.0 °F 43.0 °F 83% 30.13 in 10.0 mi NNE 10.4 mph - N/A   Overcast
11:56 PM 46.9 °F 43.0 °F 86% 30.17 in 10.0 mi North 10.4 mph 17.3 mph 0.00 in Rain Light Rain